Weather History for Toronto Pearson, ON

Change the Weather History Date:

Saturday, October 6, 2012

  Actual Average Record
Temperature  
Mean Temperature 47 °F -  
Max Temperature 52 °F 55 °F 80 °F (2007)
Min Temperature 42 °F 37 °F 33 °F (2003)
Degree Days  
Heating Degree Days 18    
Moisture  
Dew Point 41 °F    
Average Humidity 76    
Maximum Humidity 94    
Minimum Humidity 41    
Precipitation  
Precipitation 0.02 in 0.08 in - ()
Sea Level Pressure  
Sea Level Pressure 29.91 in    
Wind  
Wind Speed 11 mph ()    
Max Wind Speed 24 mph    
Max Gust Speed 28 mph    
Visibility 13.3 miles    
Events Rain    
Averages and records for this station are not official NWS values.
T = Trace of Precipitation, MM = Missing Value Source: Averaged Metar Reports

Daily Weather History Graph

Daily Weather History Graph

Search for Another Location

Airport:

Trip Planner

Search our weather history database for the weather conditions in past years. The results will help you decide how hot, cold, wet, or windy it might be!

Date:

Astronomy

Oct. 06, 2012 Rise Set
Actual Time 7:22 AM EDT 6:49 PM EDT
Civil Twilight 6:53 AM EDT 7:18 PM EDT
Nautical Twilight 6:20 AM EDT 7:51 PM EDT
Astronomical Twilight 5:47 AM EDT 8:24 PM EDT
Moon 10:55 PM EDT (10/6) 1:24 PM EDT (10/6)
Length of Visible Light 12h 24m
Length of Day
11h 27m
Waning Gibbous, 65% of the Moon is Illuminated
Oct 6
Waning Gibbous
Oct 8
Last Quarter
Oct 15
New
Oct 21
First Quarter
Oct 29
Full

Hourly Weather History & Observations

Time (EDT) Temp. Windchill Dew Point Humidity Pressure Visibility Wind Dir Wind Speed Gust Speed Precip Events Conditions
12:00 AM 50.0 °F - 48.2 °F 94% 29.90 in 8.0 mi SW 10.4 mph - N/A Rain Light Rain
1:00 AM 50.0 °F - 46.4 °F 87% 29.88 in 8.0 mi SW 8.1 mph - N/A Rain Light Rain
2:00 AM 49 °F - 47 °F 92% 29.88 in 7 mi WSW 9.2 mph - - Rain Light Rain
2:00 AM 50.0 °F - 48.2 °F 94% 29.88 in 7.0 mi WSW 9.2 mph - N/A Rain Light Rain
3:00 AM 48.2 °F - 46.4 °F 93% 29.84 in 7.0 mi West 10.4 mph - N/A Rain Light Rain
4:00 AM 48.2 °F - 44.6 °F 87% 29.84 in 8.0 mi West 8.1 mph - N/A Rain Light Rain
5:00 AM 48.2 °F - 44.6 °F 87% 29.85 in 8.0 mi WSW 9.2 mph - N/A Rain Light Rain
5:43 AM 48.2 °F - - N/A% - 12.0 mi WSW 9.2 mph - N/A   Overcast
6:00 AM 48.2 °F - 44.6 °F 87% 29.84 in 15.0 mi WSW 9.2 mph - N/A   Mostly Cloudy
7:00 AM 44.6 °F 40.2 °F 42.8 °F 93% 29.85 in 15.0 mi WSW 8.1 mph - N/A   Partly Cloudy
8:00 AM 45 °F - 43 °F 88% 29.86 in 15 mi WSW 9.2 mph - -   Partly Cloudy
8:00 AM 44.6 °F 39.2 °F 42.8 °F 93% 29.86 in 15.0 mi West 10.4 mph - N/A   Partly Cloudy
9:00 AM 46.4 °F 40.4 °F 42.8 °F 87% 29.88 in 15.0 mi West 13.8 mph - N/A   Partly Cloudy
10:00 AM 50.0 °F - 42.8 °F 76% 29.88 in 15.0 mi West 16.1 mph 21.9 mph N/A   Partly Cloudy
11:00 AM 50.0 °F - 39.2 °F 66% 29.89 in 15.0 mi West 17.3 mph - N/A   Mostly Cloudy
12:00 PM 50.0 °F - 35.6 °F 58% 29.90 in 15.0 mi WSW 24.2 mph - N/A   Mostly Cloudy
1:00 PM 50.0 °F - 35.6 °F 58% 29.91 in 15.0 mi West 18.4 mph - N/A   Mostly Cloudy
2:00 PM 50 °F - 34 °F 41% 29.90 in 15 mi West 18.4 mph - -   Mostly Cloudy
2:00 PM 50.0 °F - 33.8 °F 54% 29.90 in 15.0 mi West 19.6 mph 27.6 mph N/A   Mostly Cloudy
3:00 PM 50.0 °F - 35.6 °F 58% 29.92 in 15.0 mi West 18.4 mph - N/A   Mostly Cloudy
4:00 PM 50.0 °F - 35.6 °F 58% 29.93 in 15.0 mi West 19.6 mph 25.3 mph N/A   Mostly Cloudy
4:36 PM 50.0 °F - - N/A% - 15.0 mi West 19.6 mph - N/A Rain Light Rain Showers
5:00 PM 50.0 °F - 37.4 °F 62% 29.94 in 15.0 mi West 18.4 mph - N/A   Mostly Cloudy
6:00 PM 48.2 °F - 37.4 °F 66% 29.95 in 15.0 mi West 16.1 mph - N/A   Mostly Cloudy
7:00 PM 48.2 °F - 35.6 °F 62% 29.97 in 15.0 mi West 10.4 mph - N/A   Mostly Cloudy
7:25 PM 46.4 °F 39.5 °F - N/A% - 15.0 mi WNW 17.3 mph 23.0 mph N/A Rain Light Rain Showers
7:51 PM 44.6 °F 38.1 °F - N/A% - 15.0 mi West 13.8 mph - N/A   Mostly Cloudy
8:00 PM 45 °F - 39 °F 72% 30.00 in 15 mi West 12.7 mph - - Rain Light Rain Showers
8:00 PM 44.6 °F 38.8 °F 39.2 °F 81% 30.00 in 15.0 mi West 11.5 mph - N/A   Mostly Cloudy
9:00 PM 44.6 °F 39.7 °F 37.4 °F 76% 30.03 in 15.0 mi West 9.2 mph - N/A   Mostly Cloudy
10:00 PM 42.8 °F 37.5 °F 37.4 °F 81% 30.04 in 15.0 mi WSW 9.2 mph - N/A   Partly Cloudy
11:00 PM 42.8 °F 37.5 °F 37.4 °F 81% 30.04 in 15.0 mi West 9.2 mph - N/A   Scattered Clouds